Regional Weather Roundup
Issued by NWS

Home | Current Version | Previous Version | Text Only | Print | Product List | Glossary Off
Versions: 1 2 3 4 5 6 7 8 9 10 11 12 13 14 15 16 17 18 19 20 21 22 23 24 25 26 27 28 29 30 31 32 33 34 35 36 37 38 39 40 41 42 43 44 45 46 47 48 49 50

000
ASUS43 KIND 071809
RWRIN

WEATHER ROUNDUP FOR INDIANA
NATIONAL WEATHER SERVICE INDIANAPOLIS IN
200 PM EDT TUE JUL 07 2015

NOTE: "FAIR" INDICATES FEW OR NO CLOUDS BELOW 12,000 FEET WITH NO
SIGNIFICANT WEATHER AND/OR OBSTRUCTIONS TO VISIBILITY.

* - STATION DOES NOT REPORT WEATHER SUCH AS PRECIPITATION OR FOG.

+ - STATION NOT QUALITY CONTROLLED BY THE NATIONAL WEATHER SERVICE.
    USE DATA WITH CAUTION...ESPECIALLY DEWPOINT AND RELATIVE
    HUMIDITY OBSERVATIONS.

INZ001>003-010>013-019-020-071900-
NORTHWEST INDIANA

CITY           SKY/WX    TMP DP  RH WIND       PRES   REMARKS
GARY /AIRPORT/ CLOUDY    64  54  68 N17G30    30.03R
KNOX *+        CLOUDY    64  54  68 N16G22    29.96R
LA PORTE +     MOSUNNY   67  56  67 N22       29.99R
                                      6HR PCP:  0.04;

MICHIGAN CITY+ CLOUDY    63  54  72 N17       30.00R
MONTICELLO +   LGT RAIN  64  62  95 N15       29.95R
6HR MIN TEMP:  63; 6HR MAX TEMP:  73; 6HR PCP:  0.18;

RENSSELAER +   CLOUDY    63  59  88 N13G18    29.98R
VALPARAISO     MOSUNNY   65  52  62 N15G26    29.99R
6HR MIN TEMP:  58; 6HR MAX TEMP:  66; 6HR PCP:  0.04;


$$

LMZ046-743>745-071900-
SOUTHERN LAKE MICHIGAN

STATION/POSITION TIME  TEMP    WIND        PRES    WAVE
                       AIR SEA DIR/SP/G            HT
                 (UTC) (F)     (DEG/KT/KT) (MB)    (FT)
BURNS HARBOR     1800   59      10/ 19/ 23 1016.6S
MICHIGAN CITY    1800   60     350/ 22/ 25   N/A
5NW MICH CITY    1800   60 65   10/ 17/ 23   N/A     8

$$

INZ004-005-014>016-021>024-071900-
NORTH CENTRAL INDIANA

CITY           SKY/WX    TMP DP  RH WIND       PRES   REMARKS
ELKHART        CLOUDY    66  59  77 NW7       29.95R
GOSHEN         CLOUDY    66  62  87 N10       29.94R
6HR MIN TEMP:  64; 6HR MAX TEMP:  73; 6HR PCP:  0.21;

LOGANSPORT +   CLOUDY    64  59  82 N13G21    29.95R
PERU/GRISSOM   LGT RAIN  66  64  94 NW10      29.93R
6HR MIN TEMP:  66; 6HR MAX TEMP:  76; 6HR PCP:  0.52;

ROCHESTER +    CLOUDY    64  64 100 N9        29.95R
SOUTH BEND     CLOUDY    70  57  63 N16G24    29.96R
6HR MIN TEMP:  62; 6HR MAX TEMP:  72; 6HR PCP:  0.17;

WARSAW +         N/A     63  61  94 NW9       29.94R

$$

INZ006>009-017-018-025>027-071900-
NORTHEAST INDIANA

CITY           SKY/WX    TMP DP  RH WIND       PRES   REMARKS
ANGOLA *+      CLOUDY    66  59  77 NW9       29.92R
AUBURN +       RAIN      70  64  83 NW8       29.92R
FORT WAYNE     LGT RAIN  71  69  93 NW12      29.92R
6HR MIN TEMP:  71; 6HR MAX TEMP:  77; 6HR PCP:  0.23;

HUNTINGTON +   DRIZZLE   69  67  94 NW8       29.92R
6HR MIN TEMP:  69; 6HR MAX TEMP:  76; 6HR PCP:  0.24;


$$

INZ028-029-035-036-043>045-051>053-071900-
WEST CENTRAL INDIANA

CITY           SKY/WX    TMP DP  RH WIND       PRES   REMARKS
CRAWFORDSVL +  CLOUDY    66  64  95 N10       29.93R FOG
6HR MIN TEMP:  66; 6HR MAX TEMP:  74; 6HR PCP:  0.13;

GREENCASTLE +  HVY RAIN  72  68  88 N5        29.91F VSB 1
LAFAYETTE      LGT RAIN  65  61  87 N12G20    29.95R
6HR MIN TEMP:  63; 6HR MAX TEMP:  74; 6HR PCP:  0.18;

TERRE HAUTE    HVY RAIN  73  71  93 NW8       29.90R FOG
6HR MIN TEMP:  74; 6HR MAX TEMP:  81; 6HR PCP:  0.04;


$$

INZ030>032-037>040-046>048-054>057-064-065-071900-
CENTRAL INDIANA

CITY           SKY/WX    TMP DP  RH WIND       PRES   REMARKS
ANDERSON       LGT RAIN  72  68  88 S6        29.95R
CP ATTERBURY + CLOUDY    77  70  78 SW12      29.93F
COLUMBUS       CLOUDY    77  70  78 SW12      29.94S
FRANKFORT +    LGT RAIN N/A N/A N/A MISG      29.96R
GREENWOOD *+   CLOUDY    72  68  88 CALM      29.94F
INDIANAPOLIS   HVY RAIN  70  68  93 CALM      29.93S VSB 3/4
6HR MIN TEMP:  69; 6HR MAX TEMP:  79; 6HR PCP:  1.73;

-EAGLE CREEK   LGT RAIN  71  70  96 CALM      29.92S
6HR MIN TEMP:  70; 6HR MAX TEMP:  78; 6HR PCP:  1.20;

KOKOMO *+      CLOUDY    66  64  94 N12       29.93R
6HR MIN TEMP:  66; 6HR MAX TEMP:  77; 6HR PCP:  0.78;

MARION +       CLOUDY    74  70  87 CALM      29.93S
MT COMFORT *+  CLOUDY    68 N/A N/A S3        29.94F VSB 1/4
SHELBYVILLE    LGT RAIN  73  69  87 N6        29.93S
6HR MIN TEMP:  73; 6HR MAX TEMP:  82; 6HR PCP: TRACE;

ZIONSVILLE +   CLOUDY    72  68  89 S5        29.94R
6HR MIN TEMP:  71; 6HR MAX TEMP:  77; 6HR PCP:  0.35;


$$

INZ033-034-041-042-049-050-058-059-071900-
EAST CENTRAL INDIANA

CITY           SKY/WX    TMP DP  RH WIND       PRES   REMARKS
MUNCIE         TSTM      72  70  93 SW13      29.93R VSB 1/2
6HR MIN TEMP:  72; 6HR MAX TEMP:  79; 6HR PCP:  1.36;


$$

INZ060-061-067>069-081>083-085>088-071900-
SOUTHWEST INDIANA

CITY           SKY/WX    TMP DP  RH WIND       PRES   REMARKS
EVANSVILLE     HVY RAIN  75  72  90 SW15      29.99S VSB 1
6HR MIN TEMP:  73; 6HR MAX TEMP:  78; 6HR PCP:  0.58;

WASHINGTON +   CLOUDY    79  72  79 S13G21    29.92F
6HR MIN TEMP:  75; 6HR MAX TEMP:  80;


$$

INZ062-063-066-070>080-084-089>092-071900-
SOUTH CENTRAL AND SOUTHEAST INDIANA

CITY           SKY/WX    TMP DP  RH WIND       PRES   REMARKS
BLOOMINGTON    CLOUDY    77  73  87 S13       29.92F
6HR MIN TEMP:  74; 6HR MAX TEMP:  77; 6HR PCP:  0.08;

MADISON *+     CLOUDY    75  70  83 SW14G21   30.00S
NORTH VERNON + CLOUDY    77  77 100 SW12      29.96S
SEYMOUR +      CLOUDY    77  72  83 SW12      29.95S

$$



USA.gov is the U.S. government's official web portal to all federal, state and local government web resources and services.